This is the latest recevied weather packets stored in our database for station/object NE8U. If no packets are shown the sender has not sent any weather packets the latest 10 day(s).
| Time | Temp. | Humidity | Pressure | Rain* | Wind** | Luminosity | Snow |
|---|---|---|---|---|---|---|---|
| 1778101028 | 26.67° C | 24% | 1015.9 hPa | 0 mm | - | 729 W/m² | - |
| 1778100723 | 26.67° C | 25% | 1016.2 hPa | 0 mm | - | 754 W/m² | - |
| 1778100420 | 26.67° C | 25% | 1016.2 hPa | 0 mm | - | 772 W/m² | - |
| 1778100117 | 25.56° C | 25% | 1015.9 hPa | 0 mm | - | 774 W/m² | - |
| 1778099816 | 27.22° C | 24% | 1016 hPa | 0 mm | - | 789 W/m² | - |
| 1778099512 | 26.11° C | 24% | 1016.2 hPa | 0 mm | - | 790 W/m² | - |
| 1778099210 | 26.11° C | 24% | 1016.3 hPa | 0 mm | - | 798 W/m² | - |
| 1778098906 | 26.67° C | 25% | 1016.4 hPa | 0 mm | - | 795 W/m² | - |
| 1778098603 | 26.11° C | 25% | 1016.6 hPa | 0 mm | - | 796 W/m² | - |
| 1778098299 | 25.56° C | 25% | 1016.4 hPa | 0 mm | - | 795 W/m² | - |
| 1778097996 | 26.11° C | 25% | 1016.5 hPa | 0 mm | - | 787 W/m² | - |
| 1778097693 | 25.56° C | 26% | 1016.6 hPa | 0 mm | - | 782 W/m² | - |
| 1778097390 | 25.56° C | 27% | 1016.4 hPa | 0 mm | - | 778 W/m² | - |
| 1778097086 | 26.11° C | 26% | 1016.6 hPa | 0 mm | - | 789 W/m² | - |
| 1778096783 | 26.67° C | 24% | 1016.6 hPa | 0 mm | - | 796 W/m² | - |
| 1778096479 | 26.67° C | 26% | 1016.6 hPa | 0 mm | - | 797 W/m² | - |
| 1778096178 | 26.11° C | 25% | 1016.7 hPa | 0 mm | - | 794 W/m² | - |
| 1778095875 | 25° C | 28% | 1016.7 hPa | 0 mm | - | 792 W/m² | - |
| 1778095571 | 25° C | 27% | 1016.8 hPa | 0 mm | - | 805 W/m² | - |
| 1778095267 | 23.89° C | 29% | 1017 hPa | 0 mm | - | 803 W/m² | - |
| 1778094964 | 23.89° C | 29% | 1017.1 hPa | 0 mm | - | 807 W/m² | - |
| 1778094660 | 23.89° C | 29% | 1017.1 hPa | 0 mm | - | 804 W/m² | - |
| 1778094357 | 25° C | 29% | 1017.1 hPa | 0 mm | - | 778 W/m² | - |
| 1778094054 | 25° C | 27% | 1017.1 hPa | 0 mm | - | 769 W/m² | - |
| 1778093751 | 25° C | 29% | 1017 hPa | 0 mm | - | 808 W/m² | - |
* Rain latest hour (hover to see other rain measurements)
** Current wind speed in m/s (hover to see current wind gust speed)